This demonstration page uses our WeatherBlox Daily Observations layout. Learn more.

41.86663, -103.66717

Hourly Observations for December 26, 2019

Temp ( °F °C ) Dew Point ( °F °C ) Humidity (%) Winds ( mph kmh ) Pressure ( in mb ) Visibility ( mi km ) Precip ( " mm )
12:53 am 00:53 Cloudy 35 1.7 34 1.1 96 96 Calm 29.88 1012 9 14.48406 0 0
1:53 am 01:53 Cloudy 34 1.1 34 1.1 100 100 WNW 6 9 29.9 1012 10 16.0934 0 0
2:53 am 02:53 Cloudy 34 1.1 32 0 92 92 NW 9 15 29.93 1014 10 16.0934 0 0
3:32 am 03:32 Mostly Cloudy 32 0 30 -1.1 92 92 NW 6 9 30.04 1017 10 16.0934 0 0
3:53 am 03:53 Partly Cloudy 30 -1.1 28 -2.2 92 92 NW 6 9 29.96 1015 10 16.0934 0 0
4:08 am 04:08 Mostly Cloudy 29 -1.7 28 -2.2 96 96 NW 5 7 30.07 1018 10 16.0934 0 0
4:25 am 04:25 Cloudy 30 -1.1 28 -2.2 92 92 NW 5 7 30.07 1018 10 16.0934 0 0
4:53 am 04:53 Cloudy 31 -0.6 30 -1.1 96 96 WNW 3 6 30 1016 10 16.0934 0 0
5:53 am 05:53 Cloudy 32 0 30 -1.1 92 92 NW 6 9 30.01 1016 8 12.87472 0 0
6:31 am 06:31 Mostly Cloudy 30 -1.1 29 -1.7 96 96 NW 5 7 30.1 1019 10 16.0934 0 0
6:53 am 06:53 Mostly Cloudy 30 -1.1 29 -1.7 96 96 NW 5 7 30.04 1017 7 11.26538 0 0
7:41 am 07:41 Cloudy 32 0 31 -0.6 96 96 WNW 5 7 30.11 1020 7 11.26538 0 0
7:53 am 07:53 Cloudy 32 0 30 -1.1 92 92 WNW 8 13 30.06 1018 9 14.48406 0 0
8:53 am 08:53 Cloudy 32 0 31 -0.6 96 96 WNW 7 11 30.1 1019 10 16.0934 0.001 0.001
9:53 am 09:53 Cloudy with Light Snow 33 0.6 31 -0.6 92 92 WNW 6 9 30.12 1020 4 6.43736 0.001 0.001
10:53 am 10:53 Cloudy with Light Snow 34 1.1 30 -1.1 85 85 N 7 11 30.12 1020 8 12.87472 0.001 0.001
11:15 am 11:15 Cloudy with Light Snow 34 1.1 31 -0.6 89 89 NW 5 7 30.16 1021 2.5 4.02335 0.001 0.001
11:24 am 11:24 Cloudy with Light Snow 34 1 30 -1 87 87 NNW 6 9 30.17 1022 4 6.43736 0 0
11:51 am 11:51 Cloudy with Light Snow 34 1 30 -1 87 87 NW 6 9 30.16 1021 6 9.65604 0.001 0.001
11:53 am 11:53 Cloudy with Light Snow 34 1.1 31 -0.6 89 89 NW 6 9 30.11 1020 5 8.0467 0.001 0.001
12:00 pm 12:00 Cloudy with Light Snow 34 1 30 -1 87 87 WNW 6 9 30.16 1021 2.5 4.02335 0 0
12:06 pm 12:06 Cloudy with Light Snow 34 1 30 -1 87 87 NW 7 11 30.16 1021 2.5 4.02335 0 0
12:18 pm 12:18 Cloudy with Light Snow 34 1.1 31 -0.6 89 89 NW 7 11 30.14 1021 3 4.82802 0.001 0.001
12:30 pm 12:30 Cloudy with Light Snow 34 1.1 31 -0.6 89 89 WNW 6 9 30.14 1021 2.5 4.02335 0.001 0.001
12:36 pm 12:36 Cloudy with Light Snow 34 1 30 -1 87 87 WNW 6 9 30.14 1020 3 4.82802 0 0
12:46 pm 12:46 Cloudy with Light Snow 34 1.1 31 -0.6 89 89 WNW 7 11 30.13 1020 4 6.43736 0.001 0.001
12:53 pm 12:53 Mostly Cloudy with Scattered Snow Showers 34 1.1 31 -0.6 89 89 NW 6 9 30.09 1019 5 8.0467 0.001 0.001
1:17 pm 13:17 Mostly Cloudy 35 1.7 30 -1.1 82 82 WNW 5 7 30.12 1020 10 16.0934 0.001 0.001
1:45 pm 13:45 Partly Cloudy 34 1.1 29 -1.7 82 82 VRB 3 6 30.12 1020 10 16.0934 0.001 0.001
1:53 pm 13:53 Partly Cloudy 36 2.2 29 -1.7 76 76 NW 3 6 30.09 1019 10 16.0934 0.001 0.001
2:06 pm 14:06 Mostly Cloudy 37 3 30 -1 75 75 W 6 9 30.1 1019 10 16.0934 0 0
2:53 pm 14:53 Cloudy 35 1.7 29 -1.7 78 78 W 6 9 30.1 1019 10 16.0934 0 0
3:53 pm 15:53 Cloudy 34 1.1 28 -2.2 79 79 WSW 5 7 30.14 1021 10 16.0934 0 0
4:53 pm 16:53 Cloudy 31 -0.6 27 -2.8 85 85 WNW 3 6 30.15 1021 10 16.0934 0 0
5:53 pm 17:53 Mostly Cloudy 30 -1.1 27 -2.8 88 88 WNW 5 7 30.17 1022 10 16.0934 0 0
6:05 pm 18:05 Partly Cloudy 30 -1.1 27 -2.8 88 88 NW 5 7 30.22 1023 10 16.0934 0 0
6:53 pm 18:53 Clear 27 -2.8 25 -3.9 92 92 NNE 3 6 30.19 1022 10 16.0934 0 0
7:53 pm 19:53 Partly Cloudy 26 -3.3 24 -4.4 92 92 Calm 30.19 1022 10 16.0934 0 0
8:53 pm 20:53 Cloudy 27 -2.8 26 -3.3 96 96 Calm 30.18 1022 10 16.0934 0 0
9:53 pm 21:53 Mostly Cloudy 26 -3.3 24 -4.4 92 92 E 5 7 30.19 1022 10 16.0934 0 0
10:53 pm 22:53 Mostly Clear 25 -3.9 24 -4.4 96 96 ESE 5 7 30.16 1021 10 16.0934 0 0
11:53 pm 23:53 Clear 22 -5.6 21 -6.1 96 96 E 6 9 30.16 1021 10 16.0934 0 0

Powered by AerisWeather